VRG862 SBGL-KJFK

Flight info

Callsign VRG862
Flight time N/A
Altitude 32000
Route EDNAM UM409 PAPAK/N0497F330 DCT SAVPU DCT MUGVI/N0495F340 DCT DAMSI DCT NIRNA/N0492F360 UL776 KORTO UL329 ZPATA/N0478F380 DCT PJM L461 OPAUL/M082F380 L461 GECAL DCT DASER L459 SAVIK/N0474F380 Y486 MOUGH Y495 CAMRN
Aircraft MD11/H-SDE1E2E3FGHIJ2J3J4J5M1RWXY/LB1D1

Departure

Time 2026-04-30 14:56
Airport Rio Galeão – Tom Jobim International Airport (SBGL)

Arrival

Time N/A
Airport John F. Kennedy International Airport (KJFK)
Time Latitude Longitude Altitude Speed Heading
2026-04-30 14:31 -22.81555 -43.24759 29 ft 0 kts 43°
2026-04-30 14:37 -22.81560 -43.24765 29 ft 4 kts 40°
2026-04-30 14:38 -22.81580 -43.24780 29 ft 4 kts 14°
2026-04-30 14:38 -22.81602 -43.24781 29 ft 3 kts 336°
2026-04-30 14:38 -22.81623 -43.24770 29 ft 4 kts 322°
2026-04-30 14:38 -22.81643 -43.24750 29 ft 4 kts 306°
2026-04-30 14:39 -22.81657 -43.24726 29 ft 4 kts 300°
2026-04-30 14:39 -22.81667 -43.24708 29 ft 0 kts 304°
2026-04-30 14:43 -22.81662 -43.24717 28 ft 3 kts 304°
2026-04-30 14:43 -22.81646 -43.24742 28 ft 5 kts 304°
2026-04-30 14:44 -22.81622 -43.24784 29 ft 7 kts 304°
2026-04-30 14:44 -22.81590 -43.24836 28 ft 9 kts 304°
2026-04-30 14:44 -22.81550 -43.24899 29 ft 11 kts 307°
2026-04-30 14:44 -22.81500 -43.24964 29 ft 11 kts 300°
2026-04-30 14:45 -22.81480 -43.25029 29 ft 8 kts 259°
2026-04-30 14:45 -22.81522 -43.25069 29 ft 9 kts 215°
2026-04-30 14:45 -22.81577 -43.25111 29 ft 11 kts 215°
2026-04-30 14:45 -22.81621 -43.25157 27 ft 6 kts 245°
2026-04-30 14:46 -22.81615 -43.25175 29 ft 3 kts 297°
2026-04-30 14:46 -22.81599 -43.25202 29 ft 6 kts 306°
2026-04-30 14:46 -22.81570 -43.25246 29 ft 9 kts 306°
2026-04-30 14:46 -22.81530 -43.25306 29 ft 11 kts 306°
2026-04-30 14:47 -22.81479 -43.25382 28 ft 14 kts 306°
2026-04-30 14:47 -22.81419 -43.25473 28 ft 16 kts 306°
2026-04-30 14:47 -22.81351 -43.25576 27 ft 17 kts 306°
2026-04-30 14:47 -22.81281 -43.25683 30 ft 17 kts 306°
2026-04-30 14:48 -22.81211 -43.25788 29 ft 17 kts 305°
2026-04-30 14:48 -22.81149 -43.25882 29 ft 11 kts 306°
2026-04-30 14:48 -22.81103 -43.25927 29 ft 8 kts 347°
2026-04-30 14:48 -22.81051 -43.25903 30 ft 10 kts 34°
2026-04-30 14:49 -22.80994 -43.25859 30 ft 10 kts 35°
2026-04-30 14:49 -22.80940 -43.25818 30 ft 9 kts 35°
2026-04-30 14:49 -22.80888 -43.25778 30 ft 9 kts 36°
2026-04-30 14:49 -22.80836 -43.25737 30 ft 9 kts 35°
2026-04-30 14:50 -22.80762 -43.25680 32 ft 8 kts 35°
2026-04-30 14:50 -22.80696 -43.25630 30 ft 14 kts 35°
2026-04-30 14:51 -22.80561 -43.25525 37 ft 3 kts 36°
2026-04-30 14:51 -22.80533 -43.25503 38 ft 10 kts 39°
2026-04-30 14:51 -22.80416 -43.25435 34 ft 10 kts 332°
2026-04-30 14:52 -22.80366 -43.25473 35 ft 8 kts 325°
2026-04-30 14:52 -22.80276 -43.25527 31 ft 6 kts
2026-04-30 14:52 -22.80241 -43.25503 32 ft 5 kts 35°
2026-04-30 14:53 -22.80202 -43.25482 32 ft 2 kts 350°
2026-04-30 14:53 -22.80178 -43.25482 32 ft 2 kts 17°
2026-04-30 14:54 -22.80176 -43.25472 32 ft 0 kts 72°
2026-04-30 14:54 -22.80176 -43.25471 32 ft 0 kts 74°
2026-04-30 14:55 -22.80155 -43.25387 33 ft 37 kts 75°
2026-04-30 14:55 -22.79741 -43.23784 33 ft 174 kts 74°
2026-04-30 14:56 -22.79023 -43.21026 1032 ft 194 kts 75°
2026-04-30 14:56 -22.78400 -43.18136 2155 ft 208 kts 79°
2026-04-30 14:57 -22.78079 -43.16528 2395 ft 230 kts 78°
2026-04-30 14:57 -22.77325 -43.12836 3076 ft 261 kts 77°
2026-04-30 14:58 -22.76496 -43.08941 4616 ft 270 kts 77°
2026-04-30 14:58 -22.76058 -43.06936 5359 ft 276 kts 76°
2026-04-30 14:58 -22.75157 -43.02852 6864 ft 280 kts 75°
2026-04-30 14:59 -22.72776 -42.99756 8047 ft 285 kts 17°
2026-04-30 15:00 -22.66955 -43.00859 9817 ft 293 kts 339°
2026-04-30 15:00 -22.63098 -43.02400 10824 ft 310 kts 339°
2026-04-30 15:01 -22.58798 -43.04118 11121 ft 347 kts 338°
2026-04-30 15:01 -22.57278 -43.04728 11237 ft 357 kts 338°
2026-04-30 15:01 -22.51546 -43.07001 11505 ft 392 kts 339°
2026-04-30 15:02 -22.48936 -43.08019 11622 ft 404 kts 338°
2026-04-30 15:02 -22.46286 -43.09057 11830 ft 415 kts 339°
2026-04-30 15:03 -22.38009 -43.12280 12917 ft 425 kts 339°
2026-04-30 15:03 -22.32411 -43.14457 13761 ft 429 kts 338°
2026-04-30 15:04 -22.26807 -43.16659 14559 ft 433 kts 338°
2026-04-30 15:04 -22.18247 -43.20030 15748 ft 439 kts 338°
2026-04-30 15:05 -22.10000 -43.24299 17349 ft 443 kts 327°
2026-04-30 15:06 -22.04664 -43.27740 18500 ft 449 kts 327°
2026-04-30 15:06 -21.99296 -43.31189 19645 ft 455 kts 327°
2026-04-30 15:07 -21.93779 -43.34681 20703 ft 462 kts 328°
2026-04-30 15:07 -21.88185 -43.38199 21775 ft 468 kts 328°
2026-04-30 15:08 -21.82514 -43.41762 22787 ft 474 kts 328°
2026-04-30 15:08 -21.73907 -43.47141 24135 ft 482 kts 328°
2026-04-30 15:09 -21.68095 -43.50769 24926 ft 482 kts 328°
2026-04-30 15:09 -21.62300 -43.54385 25737 ft 479 kts 328°
2026-04-30 15:10 -21.56584 -43.57947 26813 ft 476 kts 328°
2026-04-30 15:11 -21.45104 -43.65063 28797 ft 474 kts 328°
2026-04-30 15:11 -21.39412 -43.68585 29756 ft 471 kts 328°
2026-04-30 15:12 -21.30926 -43.73835 31019 ft 468 kts 328°
2026-04-30 15:13 -21.25348 -43.77321 31764 ft 465 kts 327°
2026-04-30 15:14 -21.14214 -43.84579 32291 ft 471 kts 326°
2026-04-30 15:14 -21.05835 -43.90044 32287 ft 472 kts 326°
2026-04-30 15:17 -20.80531 -44.06477 32270 ft 473 kts 327°
2026-04-30 15:19 -20.57992 -44.21114 32248 ft 475 kts 327°
2026-04-30 17:39 -3.66466 -53.15169 33891 ft 479 kts 330°
2026-04-30 17:42 -3.37100 -53.30839 33890 ft 479 kts 335°
2026-04-30 17:43 -3.22057 -53.37957 33889 ft 478 kts 335°
2026-04-30 17:44 -3.04032 -53.46520 33878 ft 478 kts 335°
2026-04-30 17:47 -2.77042 -53.59333 33877 ft 477 kts 335°
2026-04-30 17:48 -2.56054 -53.69290 33880 ft 477 kts 335°
2026-04-30 17:50 -2.32116 -53.80646 33906 ft 477 kts 335°
2026-04-30 17:51 -2.23114 -53.84905 34679 ft 477 kts 335°
2026-04-30 17:52 -2.14116 -53.89141 35440 ft 475 kts 335°
2026-04-30 17:53 -1.99220 -53.96153 35880 ft 475 kts 335°
2026-04-30 17:54 -1.88260 -54.01313 35881 ft 474 kts 335°
2026-04-30 17:56 -1.64371 -54.12556 35881 ft 474 kts 335°
2026-04-30 17:58 -1.46466 -54.20980 35880 ft 474 kts 335°
2026-04-30 18:00 -1.22595 -54.32210 35881 ft 474 kts 335°
2026-04-30 18:01 -1.07694 -54.39219 35880 ft 474 kts 335°
2026-04-30 18:02 -0.89788 -54.47640 35870 ft 474 kts 335°
2026-04-30 18:04 -0.71891 -54.56056 35881 ft 474 kts 335°
2026-04-30 18:06 -0.47999 -54.67291 35879 ft 474 kts 335°
2026-04-30 18:08 -0.27107 -54.77114 35882 ft 474 kts 335°
2026-04-30 18:10 -0.03278 -54.88316 35861 ft 474 kts 335°
2026-04-30 18:11 0.17624 -54.98143 35845 ft 475 kts 335°
2026-04-30 18:13 0.32583 -55.05177 35844 ft 475 kts 335°
2026-04-30 18:14 0.47481 -55.12182 35855 ft 475 kts 335°
2026-04-30 18:15 0.65409 -55.20610 35844 ft 475 kts 335°
2026-04-30 18:16 0.77386 -55.26244 35856 ft 475 kts 335°
2026-04-30 18:17 0.83352 -55.29049 35856 ft 475 kts 335°
2026-04-30 18:18 0.92343 -55.33276 35859 ft 475 kts 335°
2026-04-30 18:18 0.98304 -55.36079 35852 ft 475 kts 335°
2026-04-30 18:19 1.04268 -55.38884 35846 ft 475 kts 335°
2026-04-30 18:19 1.10262 -55.41704 35854 ft 475 kts 335°
2026-04-30 18:20 1.16260 -55.44525 35843 ft 475 kts 335°
2026-04-30 18:20 1.22223 -55.47329 35839 ft 475 kts 335°
2026-04-30 18:21 1.28215 -55.50148 35843 ft 476 kts 335°
2026-04-30 18:21 1.34180 -55.52954 35839 ft 476 kts 335°
2026-04-30 18:22 1.40190 -55.55781 35842 ft 476 kts 335°
2026-04-30 18:22 1.49162 -55.60002 35841 ft 476 kts 335°
2026-04-30 18:23 1.55159 -55.62826 35845 ft 476 kts 335°
2026-04-30 18:23 1.61165 -55.65655 35854 ft 476 kts 335°
2026-04-30 18:24 1.70129 -55.69877 35846 ft 476 kts 335°
2026-04-30 18:25 1.76132 -55.72706 35844 ft 476 kts 335°
2026-04-30 18:25 1.85096 -55.76925 35855 ft 476 kts 335°
2026-04-30 18:26 1.94099 -55.81160 35855 ft 477 kts 335°
2026-04-30 18:27 2.03077 -55.85384 35855 ft 477 kts 335°
2026-04-30 18:28 2.12087 -55.89623 35850 ft 477 kts 335°
2026-04-30 18:28 2.21052 -55.93852 35850 ft 477 kts 335°
2026-04-30 18:29 2.32877 -55.99919 35855 ft 477 kts 333°
2026-04-30 18:30 2.44629 -56.06034 35845 ft 477 kts 333°
2026-04-30 18:31 2.53448 -56.10607 35838 ft 477 kts 333°
2026-04-30 18:32 2.62287 -56.15193 35844 ft 477 kts 333°
2026-04-30 18:33 2.71119 -56.19778 35844 ft 477 kts 333°
2026-04-30 18:33 2.79937 -56.24353 35843 ft 477 kts 333°
2026-04-30 18:34 2.88772 -56.28939 35862 ft 477 kts 333°
2026-04-30 18:35 2.94661 -56.31998 35866 ft 476 kts 333°
2026-04-30 18:35 3.00524 -56.35042 35856 ft 476 kts 333°
2026-04-30 18:36 3.09326 -56.39614 35862 ft 476 kts 333°
2026-04-30 18:37 3.18151 -56.44198 35859 ft 476 kts 333°
2026-04-30 18:37 3.24045 -56.47259 35854 ft 476 kts 333°
2026-04-30 18:38 3.29906 -56.50303 35866 ft 477 kts 333°
2026-04-30 18:38 3.35798 -56.53366 35866 ft 477 kts 333°
2026-04-30 18:39 3.41703 -56.56435 35855 ft 477 kts 333°
2026-04-30 18:39 3.47565 -56.59484 35858 ft 477 kts 333°
2026-04-30 18:40 3.53459 -56.62547 35860 ft 477 kts 333°
2026-04-30 18:40 3.59354 -56.65610 35850 ft 477 kts 333°
2026-04-30 18:41 3.65257 -56.68680 35852 ft 477 kts 333°
2026-04-30 18:41 3.71113 -56.71726 35863 ft 477 kts 333°
2026-04-30 18:42 3.77001 -56.74790 35865 ft 477 kts 333°
2026-04-30 18:42 3.85852 -56.79394 35854 ft 477 kts 333°
2026-04-30 18:45 4.18215 -56.96240 35870 ft 476 kts 333°
2026-04-30 18:46 4.24099 -56.99305 35876 ft 476 kts 333°
2026-04-30 18:46 4.29985 -57.02371 35865 ft 476 kts 332°
2026-04-30 18:47 4.35869 -57.05437 35865 ft 476 kts 332°
2026-04-30 18:47 4.41750 -57.08501 35865 ft 476 kts 332°
2026-04-30 18:48 4.47600 -57.11550 35872 ft 476 kts 332°
2026-04-30 18:48 4.53484 -57.14619 35863 ft 476 kts 332°
2026-04-30 18:49 4.59371 -57.17691 35876 ft 476 kts 332°
2026-04-30 18:49 4.65217 -57.20738 35873 ft 476 kts 332°
2026-04-30 18:50 4.71105 -57.23809 35864 ft 475 kts 332°
2026-04-30 18:50 4.76980 -57.26873 35882 ft 475 kts 332°
2026-04-30 18:51 4.82818 -57.29919 35867 ft 475 kts 332°
2026-04-30 18:51 4.88690 -57.32983 35881 ft 475 kts 332°
2026-04-30 18:52 4.93567 -57.35530 35882 ft 475 kts 332°
2026-04-30 18:52 4.99450 -57.38601 35880 ft 475 kts 332°
2026-04-30 18:53 5.05285 -57.41652 35880 ft 475 kts 332°
2026-04-30 18:53 5.11154 -57.44730 35871 ft 475 kts 332°
2026-04-30 18:54 5.17013 -57.47805 35880 ft 475 kts 332°
2026-04-30 18:54 5.22868 -57.50878 35885 ft 475 kts 332°
2026-04-30 18:55 5.28726 -57.53950 35887 ft 475 kts 332°
2026-04-30 18:55 5.37486 -57.58547 35888 ft 474 kts 332°
2026-04-30 18:56 5.46225 -57.63136 35888 ft 474 kts 332°
2026-04-30 18:57 5.54985 -57.67736 35894 ft 473 kts 332°
2026-04-30 18:57 5.60827 -57.70805 35897 ft 473 kts 332°
2026-04-30 18:58 5.69564 -57.75396 35897 ft 473 kts 332°
2026-04-30 18:59 5.78337 -57.80008 35897 ft 474 kts 332°
2026-04-30 19:00 5.89993 -57.86140 35906 ft 474 kts 332°
2026-04-30 19:01 6.01655 -57.92275 35906 ft 474 kts 332°
2026-04-30 19:02 6.10430 -57.96893 35907 ft 474 kts 332°
2026-04-30 19:03 6.22120 -58.03050 35906 ft 474 kts 332°
2026-04-30 19:04 6.33778 -58.09190 35907 ft 473 kts 332°
2026-04-30 19:05 6.45409 -58.15321 35917 ft 473 kts 332°
2026-04-30 19:06 6.57036 -58.21456 35915 ft 472 kts 331°
2026-04-30 19:06 6.65763 -58.26062 35915 ft 471 kts 331°
2026-04-30 19:07 6.74438 -58.30640 35917 ft 470 kts 331°
2026-04-30 19:08 6.86034 -58.36766 35907 ft 469 kts 331°
2026-04-30 19:09 6.94717 -58.41352 35906 ft 469 kts 331°
2026-04-30 19:09 7.00453 -58.44382 35906 ft 468 kts 331°
2026-04-30 19:10 7.11994 -58.50484 35889 ft 467 kts 331°
2026-04-30 19:11 7.20600 -58.55037 35888 ft 467 kts 331°
2026-04-30 19:12 7.26356 -58.58085 35887 ft 466 kts 331°
2026-04-30 19:12 7.32078 -58.61116 35865 ft 466 kts 331°
2026-04-30 19:13 7.43562 -58.67199 35869 ft 465 kts 331°
2026-04-30 19:14 7.49271 -58.70223 35881 ft 465 kts 331°
2026-04-30 19:14 7.55000 -58.73259 35879 ft 465 kts 331°
2026-04-30 19:15 7.60731 -58.76299 35879 ft 465 kts 331°
2026-04-30 19:15 7.69333 -58.80862 35867 ft 465 kts 331°
2026-04-30 19:16 7.75035 -58.83886 35881 ft 464 kts 331°
2026-04-30 19:17 7.83621 -58.88443 35878 ft 464 kts 331°
2026-04-30 19:17 7.92206 -58.93001 35888 ft 465 kts 331°
2026-04-30 19:18 8.00777 -58.97557 35888 ft 465 kts 331°
2026-04-30 19:19 8.06458 -59.00576 35887 ft 462 kts 331°
2026-04-30 19:19 8.14994 -59.05116 35888 ft 462 kts 331°
2026-04-30 19:20 8.20696 -59.08149 35887 ft 462 kts 331°
2026-04-30 19:21 8.29195 -59.12672 35888 ft 462 kts 331°
2026-04-30 19:22 8.40599 -59.18742 35888 ft 462 kts 331°
2026-04-30 19:23 8.57651 -59.27830 35888 ft 462 kts 331°
2026-04-30 19:24 8.66152 -59.32363 35888 ft 462 kts 331°
2026-04-30 19:25 8.80577 -59.39587 35889 ft 464 kts 337°
2026-04-30 19:26 8.92639 -59.44148 35888 ft 464 kts 338°
2026-04-30 19:27 9.01707 -59.47621 35888 ft 464 kts 338°
2026-04-30 19:28 9.10699 -59.51088 35895 ft 463 kts 337°
2026-04-30 19:29 9.22746 -59.55737 35896 ft 464 kts 338°
2026-04-30 19:30 9.34818 -59.60394 35897 ft 464 kts 338°
2026-04-30 19:31 9.46850 -59.65043 35897 ft 464 kts 338°
2026-04-30 19:31 9.55907 -59.68543 35897 ft 464 kts 337°
2026-04-30 19:32 9.61924 -59.70872 35897 ft 464 kts 338°
2026-04-30 19:32 9.67983 -59.73217 35902 ft 465 kts 338°
2026-04-30 19:33 9.73996 -59.75544 35907 ft 465 kts 338°
2026-04-30 19:33 9.80049 -59.77889 35906 ft 465 kts 338°
2026-04-30 19:34 9.86103 -59.80233 35906 ft 465 kts 338°
2026-04-30 19:35 9.95175 -59.83748 35906 ft 465 kts 338°
2026-04-30 19:35 10.01188 -59.86079 35906 ft 465 kts 337°
2026-04-30 19:36 10.07244 -59.88427 35906 ft 465 kts 337°
2026-04-30 19:36 10.16291 -59.91938 35906 ft 465 kts 337°
2026-04-30 19:37 10.22349 -59.94289 35906 ft 465 kts 337°
2026-04-30 19:37 10.28400 -59.96639 35906 ft 465 kts 337°
2026-04-30 19:38 10.34452 -59.98992 35906 ft 465 kts 337°
2026-04-30 19:38 10.40465 -60.01332 35906 ft 465 kts 337°
2026-04-30 19:39 10.46526 -60.03689 35906 ft 466 kts 337°
2026-04-30 19:39 10.52588 -60.06049 35906 ft 465 kts 337°
2026-04-30 19:40 10.58601 -60.08389 35906 ft 465 kts 337°
2026-04-30 19:40 10.64654 -60.10745 35906 ft 464 kts 337°
2026-04-30 19:41 10.70701 -60.13100 35906 ft 464 kts 337°
2026-04-30 19:41 10.76702 -60.15438 35906 ft 464 kts 337°
2026-04-30 19:42 10.82728 -60.17787 35906 ft 463 kts 337°
2026-04-30 19:42 10.88768 -60.20143 35906 ft 463 kts 337°
2026-04-30 19:43 10.94767 -60.22484 35906 ft 463 kts 337°
2026-04-30 19:44 11.03781 -60.26003 35906 ft 462 kts 337°
2026-04-30 19:44 11.09753 -60.28337 35906 ft 461 kts 337°
2026-04-30 19:45 11.14777 -60.30301 35906 ft 461 kts 337°
2026-04-30 19:45 11.20733 -60.32632 35906 ft 461 kts 337°
2026-04-30 19:46 11.26732 -60.34980 35914 ft 460 kts 337°
2026-04-30 19:46 11.32710 -60.37319 35916 ft 460 kts 337°
2026-04-30 19:47 11.38641 -60.39640 35915 ft 459 kts 337°
2026-04-30 19:47 11.44632 -60.41985 35915 ft 459 kts 337°
2026-04-30 19:48 11.50573 -60.44312 35915 ft 459 kts 337°
2026-04-30 19:48 11.56552 -60.46656 35916 ft 459 kts 337°
2026-04-30 19:49 11.62482 -60.48983 35915 ft 458 kts 337°
2026-04-30 19:49 11.71412 -60.52486 35910 ft 458 kts 337°
2026-04-30 19:50 11.77377 -60.54830 35906 ft 458 kts 337°
2026-04-30 19:50 11.83306 -60.57158 35906 ft 458 kts 337°
2026-04-30 19:51 11.89263 -60.59500 35906 ft 458 kts 336°
2026-04-30 19:51 11.95185 -60.61832 35906 ft 458 kts 336°
2026-04-30 19:52 12.01150 -60.64179 35906 ft 458 kts 336°
2026-04-30 19:52 12.07101 -60.66520 35914 ft 457 kts 336°
2026-04-30 19:53 12.13011 -60.68846 35915 ft 458 kts 336°
2026-04-30 19:53 12.18968 -60.71193 35925 ft 457 kts 336°
2026-04-30 19:54 12.24879 -60.73523 35924 ft 457 kts 336°
2026-04-30 19:54 12.30820 -60.75865 35924 ft 458 kts 336°
2026-04-30 19:55 12.36780 -60.78216 35924 ft 458 kts 336°
2026-04-30 19:55 12.42738 -60.80569 35925 ft 458 kts 336°
2026-04-30 19:56 12.48660 -60.82904 35924 ft 458 kts 336°
2026-04-30 19:56 12.54620 -60.85245 35924 ft 458 kts 336°
2026-04-30 19:57 12.60579 -60.87585 35924 ft 458 kts 336°
2026-04-30 19:57 12.66503 -60.89912 35924 ft 458 kts 336°
2026-04-30 19:58 12.72465 -60.92256 35936 ft 459 kts 336°
2026-04-30 19:58 12.78401 -60.94591 35934 ft 459 kts 336°
2026-04-30 19:59 12.84371 -60.96941 35936 ft 459 kts 336°
2026-04-30 20:00 12.93284 -61.00451 35935 ft 459 kts 336°
2026-04-30 20:00 12.99244 -61.02799 35933 ft 458 kts 335°
2026-04-30 20:01 13.08196 -61.06329 35932 ft 459 kts 335°
2026-04-30 20:01 13.14130 -61.08671 35935 ft 459 kts 335°
2026-04-30 20:02 13.23079 -61.12204 35935 ft 458 kts 335°
2026-04-30 20:03 13.32012 -61.15739 35929 ft 459 kts 335°
2026-04-30 20:03 13.37940 -61.18084 35934 ft 458 kts 335°
2026-04-30 20:04 13.43890 -61.20438 35938 ft 458 kts 335°
2026-04-30 20:05 13.52825 -61.23975 35934 ft 458 kts 335°
2026-04-30 20:05 13.61719 -61.27499 35933 ft 458 kts 335°
2026-04-30 20:06 13.67674 -61.29860 35932 ft 458 kts 335°
2026-04-30 20:06 13.73603 -61.32214 35930 ft 458 kts 335°
2026-04-30 20:07 13.79550 -61.34577 35934 ft 458 kts 335°
2026-04-30 20:08 13.88478 -61.38123 35932 ft 458 kts 335°
2026-04-30 20:08 13.94430 -61.40488 35932 ft 458 kts 335°
2026-04-30 20:09 14.00338 -61.42838 35937 ft 458 kts 335°
2026-04-30 20:09 14.09259 -61.46389 35933 ft 457 kts 334°
2026-04-30 20:10 14.18122 -61.49919 35926 ft 457 kts 334°
2026-04-30 20:11 14.27033 -61.53471 35925 ft 457 kts 334°
2026-04-30 20:11 14.32927 -61.55823 35924 ft 457 kts 334°
2026-04-30 20:12 14.41843 -61.59383 35924 ft 457 kts 334°
2026-04-30 20:13 14.47731 -61.61738 35924 ft 456 kts 334°
2026-04-30 20:13 14.53665 -61.64113 35924 ft 456 kts 334°
2026-04-30 20:14 14.59551 -61.66468 35924 ft 456 kts 334°
2026-04-30 20:14 14.65472 -61.68838 35917 ft 456 kts 334°
2026-04-30 20:15 14.71395 -61.71209 35915 ft 455 kts 334°
2026-04-30 20:15 14.77312 -61.73581 35915 ft 455 kts 334°
2026-04-30 20:16 14.83190 -61.75938 35915 ft 454 kts 334°
2026-04-30 20:16 14.89106 -61.78311 35915 ft 455 kts 334°
2026-04-30 20:17 14.95015 -61.80684 35915 ft 454 kts 334°
2026-04-30 20:17 15.00878 -61.83038 35918 ft 454 kts 334°
2026-04-30 20:18 15.06778 -61.85408 35915 ft 454 kts 334°
2026-04-30 20:18 15.12677 -61.87780 35916 ft 454 kts 334°
2026-04-30 20:19 15.18550 -61.90143 35915 ft 454 kts 334°
2026-04-30 20:19 15.24414 -61.92511 35915 ft 454 kts 333°
2026-04-30 20:20 15.30295 -61.94899 35915 ft 454 kts 333°
2026-04-30 20:20 15.36186 -61.97292 35918 ft 453 kts 333°
2026-04-30 20:21 15.42026 -61.99662 35933 ft 454 kts 333°
2026-04-30 20:21 15.47914 -62.02053 35935 ft 454 kts 333°
2026-04-30 20:22 15.53811 -62.04449 35938 ft 454 kts 333°
2026-04-30 20:22 15.59655 -62.06825 35938 ft 454 kts 333°
2026-04-30 20:23 15.65542 -62.09220 35932 ft 454 kts 333°
2026-04-30 20:23 15.71389 -62.11601 35932 ft 454 kts 333°
2026-04-30 20:24 15.77268 -62.13994 35933 ft 453 kts 333°
2026-04-30 20:24 15.83149 -62.16391 35933 ft 453 kts 333°
2026-04-30 20:25 15.91922 -62.19971 35952 ft 453 kts 333°
2026-04-30 20:26 16.00702 -62.23558 35944 ft 453 kts 333°
2026-04-30 20:26 16.09522 -62.27168 35957 ft 453 kts 333°
2026-04-30 20:27 16.21222 -62.31956 35962 ft 453 kts 333°
2026-04-30 20:28 16.32957 -62.36764 35954 ft 453 kts 333°
2026-04-30 20:30 16.47610 -62.42776 35952 ft 453 kts 332°
2026-04-30 20:31 16.65182 -62.49998 35962 ft 453 kts 332°
2026-04-30 20:32 16.79828 -62.56031 35952 ft 453 kts 332°
2026-04-30 20:33 16.88644 -62.59671 35949 ft 453 kts 332°
2026-04-30 20:34 16.97409 -62.63290 35943 ft 453 kts 332°
2026-04-30 20:35 17.06222 -62.66932 35943 ft 453 kts 331°
2026-04-30 20:35 17.14989 -62.70556 35943 ft 452 kts 331°
2026-04-30 20:36 17.20850 -62.72982 35939 ft 452 kts 331°
2026-04-30 20:37 17.29630 -62.76620 35934 ft 452 kts 331°
2026-04-30 20:37 17.35458 -62.79036 35933 ft 453 kts 331°
2026-04-30 20:38 17.41313 -62.81465 35936 ft 452 kts 331°
2026-04-30 20:38 17.46181 -62.83485 35934 ft 452 kts 331°
2026-04-30 20:39 17.54949 -62.87151 35934 ft 450 kts 329°
2026-04-30 20:40 17.63367 -62.91319 35934 ft 447 kts 326°
2026-04-30 20:40 17.68947 -62.94207 35933 ft 447 kts 327°
2026-04-30 20:41 17.77340 -62.98512 35934 ft 446 kts 327°
2026-04-30 20:41 17.82932 -63.01371 35934 ft 446 kts 327°
2026-04-30 20:42 17.88479 -63.04207 35934 ft 446 kts 327°
2026-04-30 20:43 17.96862 -63.08499 35934 ft 447 kts 326°
2026-04-30 20:43 18.02497 -63.11311 35933 ft 451 kts 331°
2026-04-30 20:44 18.08634 -63.12999 35935 ft 463 kts 341°
2026-04-30 20:44 18.11825 -63.13563 35934 ft 465 kts 342°
2026-04-30 20:45 18.24605 -63.15767 35937 ft 464 kts 342°
2026-04-30 20:45 18.30932 -63.16948 35943 ft 464 kts 341°
2026-04-30 20:46 18.43617 -63.19342 35943 ft 464 kts 342°
2026-04-30 20:47 18.53173 -63.21132 35943 ft 464 kts 342°
2026-04-30 20:48 18.62714 -63.22918 35943 ft 464 kts 342°
2026-04-30 20:48 18.69042 -63.24105 35943 ft 464 kts 342°
2026-04-30 20:49 18.75416 -63.25302 35943 ft 464 kts 342°
2026-04-30 20:50 18.84923 -63.27087 35943 ft 464 kts 342°
2026-04-30 20:50 18.91265 -63.28279 35943 ft 464 kts 342°
2026-04-30 20:51 18.97639 -63.29479 35944 ft 464 kts 342°
2026-04-30 20:51 19.07156 -63.31271 35943 ft 464 kts 342°
2026-04-30 20:52 19.13532 -63.32474 35943 ft 464 kts 342°
2026-04-30 20:53 19.23058 -63.34273 35943 ft 464 kts 342°
2026-04-30 20:53 19.29432 -63.35478 35943 ft 464 kts 342°
2026-04-30 20:54 19.38951 -63.37281 35943 ft 465 kts 342°
2026-04-30 20:55 19.48494 -63.39088 35943 ft 466 kts 342°
2026-04-30 20:55 19.54899 -63.40301 35943 ft 466 kts 342°
2026-04-30 20:56 19.64476 -63.42118 35944 ft 466 kts 342°
2026-04-30 20:57 19.74036 -63.43934 35943 ft 467 kts 342°
2026-04-30 20:57 19.80443 -63.45150 35943 ft 466 kts 342°
2026-04-30 20:58 19.89975 -63.46965 35943 ft 465 kts 342°
2026-04-30 20:58 19.96370 -63.48184 35944 ft 465 kts 342°
2026-04-30 20:59 20.05915 -63.50006 35943 ft 466 kts 342°
2026-04-30 21:00 20.18670 -63.52446 35943 ft 467 kts 342°
2026-04-30 21:01 20.28278 -63.54284 35943 ft 467 kts 342°
2026-04-30 21:02 20.37836 -63.56114 35948 ft 467 kts 342°
2026-04-30 21:02 20.44229 -63.57341 35953 ft 467 kts 342°
2026-04-30 21:03 20.50630 -63.58568 35953 ft 467 kts 342°
2026-04-30 21:03 20.56996 -63.59792 35953 ft 467 kts 342°
2026-04-30 21:04 20.63410 -63.61026 35953 ft 467 kts 342°
2026-04-30 21:04 20.72983 -63.62866 35953 ft 468 kts 342°
2026-04-30 21:05 20.79412 -63.64107 35953 ft 468 kts 342°
2026-04-30 21:05 20.85792 -63.65337 35953 ft 469 kts 342°
2026-04-30 21:06 20.92224 -63.66580 35952 ft 469 kts 342°
2026-04-30 21:06 20.98659 -63.67823 35953 ft 469 kts 342°
2026-04-30 21:07 21.05056 -63.69062 35953 ft 470 kts 341°
2026-04-30 21:07 21.11493 -63.70306 35953 ft 470 kts 341°
2026-04-30 21:08 21.17954 -63.71556 35952 ft 471 kts 341°
2026-04-30 21:08 21.24377 -63.72801 35953 ft 472 kts 341°
2026-04-30 21:09 21.30850 -63.74055 35952 ft 472 kts 341°
2026-04-30 21:09 21.37291 -63.75305 35953 ft 473 kts 341°
2026-04-30 21:10 21.43744 -63.76560 35953 ft 473 kts 341°
2026-04-30 21:10 21.50232 -63.77824 35953 ft 474 kts 342°
2026-04-30 21:11 21.56743 -63.79091 35953 ft 475 kts 342°
2026-04-30 21:11 21.63252 -63.80361 35952 ft 475 kts 342°
2026-04-30 21:12 21.69725 -63.81624 35953 ft 475 kts 342°
2026-04-30 21:12 21.76239 -63.82897 35953 ft 475 kts 343°
2026-04-30 21:13 21.82742 -63.84168 35953 ft 475 kts 343°
2026-04-30 21:13 21.89256 -63.85442 35953 ft 475 kts 343°
2026-04-30 21:14 21.95767 -63.86717 35953 ft 475 kts 343°
2026-04-30 21:14 22.02235 -63.87985 35951 ft 475 kts 343°
2026-04-30 21:15 22.08754 -63.89264 35944 ft 475 kts 343°
2026-04-30 21:15 22.15233 -63.90536 35943 ft 475 kts 343°
2026-04-30 21:16 22.21749 -63.91816 35943 ft 475 kts 343°
2026-04-30 21:16 22.28262 -63.93097 35943 ft 475 kts 343°
2026-04-30 21:17 22.34738 -63.94372 35944 ft 475 kts 343°
2026-04-30 21:17 22.41262 -63.95656 35943 ft 475 kts 343°
2026-04-30 21:18 22.47728 -63.96932 35943 ft 475 kts 343°
2026-04-30 21:18 22.54255 -63.98221 35943 ft 475 kts 343°
2026-04-30 21:19 22.60766 -63.99507 35943 ft 475 kts 343°
2026-04-30 21:19 22.67230 -64.00786 35943 ft 474 kts 343°
2026-04-30 21:20 22.73746 -64.02078 35943 ft 474 kts 343°
2026-04-30 21:20 22.80189 -64.03358 35944 ft 475 kts 343°
2026-04-30 21:21 22.83453 -64.04007 36154 ft 476 kts 343°
2026-04-30 21:21 22.86712 -64.04654 36435 ft 475 kts 343°
2026-04-30 21:21 22.93223 -64.05945 37032 ft 472 kts 343°
2026-04-30 21:22 22.96446 -64.06584 37393 ft 469 kts 342°
2026-04-30 21:22 23.05984 -64.08480 37931 ft 462 kts 342°
2026-04-30 21:23 23.09149 -64.09110 37939 ft 461 kts 342°